Homestead, FL

11:08 PM EST on December 04, 2016 (GMT -0500)
Dade County-Homestead Regional

Weather History for KHST - November, 2012

Change the Weather History Date:

Friday, November 9, 2012

  Actual Average Record
Temperature  
Mean Temperature 66 °F -  
Max Temperature 75 °F 81 °F 90 °F (1958)
Min Temperature 56 °F 63 °F 52 °F (1976)
Growing Degree Days 16 (Base 50)    
Moisture  
Dew Point 53 °F    
Average Humidity 59    
Maximum Humidity 82    
Minimum Humidity 43    
Precipitation  
Precipitation 0.00 in - - ()
Sea Level Pressure  
Sea Level Pressure 30.16 in    
Wind  
Wind Speed 12 mph (NNE)    
Max Wind Speed 18 mph    
Max Gust Speed 26 mph    
Visibility 10 miles    
Events      
Averages and records for this station are not official NWS values.
T = Trace of Precipitation, MM = Missing Value Source: NWS Daily Summary

Daily Weather History Graph

Daily Weather History Graph

Search for Another Location

Airport or City:

Trip Planner

Search our weather history database for the weather conditions in past years. The results will help you decide how hot, cold, wet, or windy it might be!

Date:

Astronomy

Nov. 09, 2012 Rise Set
Actual Time 6:35 AM EST 5:35 PM EST
Civil Twilight 6:11 AM EST 5:59 PM EST
Nautical Twilight 5:43 AM EST 6:26 PM EST
Astronomical Twilight 5:16 AM EST 6:54 PM EST
Moon 1:59 AM EST (11/9) 2:23 PM EST (11/9)
Length of Visible Light 11h 48m
Length of Day
11h 00m
Waning Crescent, 23% of the Moon is Illuminated
Nov 9
Waning Crescent
Nov 13
New
Nov 20
First Quarter
Nov 28
Full
Dec 6
Last Quarter

Hourly Weather History & Observations

Time (EST) Temp. Dew Point Humidity Pressure Visibility Wind Dir Wind Speed Gust Speed Precip Events Conditions
12:55 AM 60.1 °F 47.7 °F 64% 30.13 in 10.0 mi NNW 10.4 mph - N/A   Scattered Clouds
1:55 AM 59.4 °F 49.1 °F 69% 30.11 in 10.0 mi NNW 11.5 mph - N/A   Scattered Clouds
2:55 AM 58.5 °F 51.1 °F 76% 30.12 in 10.0 mi NNW 11.5 mph - N/A   Partly Cloudy
4:55 AM 57.9 °F 51.3 °F 78% 30.12 in 10.0 mi NNW 9.2 mph - N/A   Clear
5:55 AM 57.2 °F 50.9 °F 79% 30.13 in 10.0 mi NNW 8.1 mph - N/A   Clear
6:55 AM 56.3 °F 50.9 °F 82% 30.15 in 10.0 mi NNW 4.6 mph - N/A   Clear
7:55 AM 59.7 °F 52.9 °F 78% 30.17 in 10.0 mi North 6.9 mph - N/A   Clear
8:55 AM 66.4 °F 55.2 °F 67% 30.19 in 10.0 mi North 11.5 mph - N/A   Clear
9:55 AM 70.9 °F 55.9 °F 59% 30.20 in 10.0 mi North 12.7 mph - N/A   Clear
10:55 AM 74.1 °F 54.0 °F 49% 30.20 in 10.0 mi NE 17.3 mph 26.5 mph N/A   Clear
11:55 AM 75.6 °F 53.1 °F 45% 30.19 in 10.0 mi ENE 18.4 mph 26.5 mph N/A   Clear
12:00 PM 75.2 °F 53.6 °F 47% 30.19 in 10.0 mi ENE 15.0 mph 25.3 mph N/A   Clear
12:55 PM 75.9 °F 52.9 °F 45% 30.17 in 10.0 mi NE 18.4 mph 25.3 mph 0.00 in   Clear
1:55 PM 75.4 °F 51.3 °F 43% 30.15 in 10.0 mi NE 16.1 mph - N/A   Clear
2:55 PM 74.7 °F 52.5 °F 46% 30.14 in 10.0 mi ENE 18.4 mph - N/A   Partly Cloudy
3:55 PM 72.5 °F 55.4 °F 55% 30.14 in 10.0 mi ENE 18.4 mph 25.3 mph N/A   Partly Cloudy
4:55 PM 72.3 °F 51.1 °F 47% 30.15 in 10.0 mi NE 17.3 mph - N/A   Partly Cloudy
5:55 PM 69.3 °F 52.9 °F 56% 30.16 in 10.0 mi ENE 13.8 mph - N/A   Scattered Clouds
6:55 PM 70.0 °F 52.3 °F 53% 30.17 in 10.0 mi NE 13.8 mph - N/A   Mostly Cloudy
7:55 PM 69.6 °F 51.8 °F 53% 30.18 in 10.0 mi ENE 9.2 mph - N/A   Mostly Cloudy
8:55 PM 69.8 °F 53.2 °F 56% 30.19 in 10.0 mi ENE 12.7 mph - N/A   Overcast
9:55 PM 69.3 °F 53.6 °F 57% 30.20 in 10.0 mi ENE 10.4 mph - N/A   Mostly Cloudy
10:55 PM 69.1 °F 54.9 °F 60% 30.20 in 10.0 mi ENE 8.1 mph - N/A   Mostly Cloudy
11:55 PM 69.6 °F 53.4 °F 56% 30.19 in 10.0 mi ENE 9.2 mph - N/A   Overcast